Weather History for Barter Island, AK

Change the Weather History Date:

Wednesday, May 23, 2012

  Actual Average Record
Temperature  
Mean Temperature 29 °F -  
Max Temperature 25 °F 27 °F 41 °F (2008)
Min Temperature 26 °F 21 °F 15 °F (2001)
Degree Days  
Heating Degree Days 36    
Moisture  
Dew Point 27 °F    
Average Humidity 95    
Maximum Humidity 100    
Minimum Humidity 85    
Precipitation  
Precipitation 0.00 in - - ()
Sea Level Pressure  
Sea Level Pressure 30.12 in    
Wind  
Wind Speed 9 mph (East)    
Max Wind Speed 15 mph    
Max Gust Speed -    
Visibility 2 miles    
Events Fog , Snow    
Averages and records for this station are not official NWS values.
T = Trace of Precipitation, MM = Missing Value Source: NWS Daily Summary

Daily Weather History Graph

Daily Weather History Graph

Search for Another Location

Airport:

Trip Planner

Search our weather history database for the weather conditions in past years. The results will help you decide how hot, cold, wet, or windy it might be!

Date:

Astronomy

May. 23, 2012 Rise Set
Actual Time 2:03 AM AKDT Sun does not rise
Civil Twilight Sun does not rise Sun does not rise
Nautical Twilight Sun does not rise Sun does not rise
Astronomical Twilight Sun does not rise Sun does not rise
Moon No Moon Rise No Moon Set
Length of Visible Light 24h 00m
Length of Day
24h 00m
Waxing Crescent, 7% of the Moon is Illuminated
May 23
Waxing Crescent
May 28
First Quarter
Jun 4
Full
Jun 11
Last Quarter
Jun 19
New

Hourly Weather History & Observations

Time (AKDT) Temp. Windchill Dew Point Humidity Pressure Visibility Wind Dir Wind Speed Gust Speed Precip Events Conditions
12:01 AM 28.0 °F 20.0 °F 27.0 °F 96% 30.08 in 0.5 mi East 8.1 mph - 0.00 in Fog , Snow Light Snow
12:07 AM 28.4 °F 19.1 °F 26.6 °F 93% 30.08 in 1.0 mi East 10.4 mph - 0.00 in Snow Light Snow
12:11 AM 28.4 °F 20.4 °F 26.6 °F 93% 30.08 in 2.0 mi East 8.1 mph - 0.00 in Snow Light Snow
12:21 AM 28.4 °F 19.7 °F 26.6 °F 93% 30.08 in 1.0 mi East 9.2 mph - 0.00 in Snow Light Snow
12:23 AM 28.4 °F 19.7 °F 26.6 °F 93% 30.08 in 0.5 mi East 9.2 mph - 0.00 in Fog , Snow Light Snow
12:33 AM 26.6 °F 17.5 °F 26.6 °F 100% 30.08 in 1.2 mi ESE 9.2 mph - 0.00 in Snow Light Snow
12:36 AM 28.4 °F 20.4 °F 26.6 °F 93% 30.08 in 3.0 mi ESE 8.1 mph - 0.00 in Snow Light Snow
12:48 AM 28.4 °F 21.2 °F 26.6 °F 93% 30.08 in 1.8 mi East 6.9 mph - 0.00 in Snow Light Snow
12:58 AM 28.4 °F 20.4 °F 26.6 °F 93% 30.09 in 3.0 mi ESE 8.1 mph - 0.00 in Snow Light Snow
1:01 AM 28.0 °F 19.3 °F 27.0 °F 96% 30.09 in 3.0 mi ESE 9.2 mph - 0.00 in Snow Light Snow
1:09 AM 28.4 °F 21.2 °F 28.4 °F 100% 30.09 in 1.8 mi East 6.9 mph - 0.00 in Snow Light Snow
1:22 AM 28.4 °F 20.4 °F 28.4 °F 100% 30.09 in 0.8 mi East 8.1 mph - 0.00 in Snow Light Snow
1:33 AM 28.4 °F 19.7 °F 28.4 °F 100% 30.09 in 1.2 mi East 9.2 mph - 0.00 in Snow Light Snow
1:40 AM 28.4 °F 20.4 °F 28.4 °F 100% 30.09 in 0.8 mi East 8.1 mph - 0.00 in Snow Light Snow
2:01 AM 28.4 °F 20.4 °F 28.4 °F 100% 30.09 in 0.5 mi East 8.1 mph - 0.00 in Fog , Snow Light Snow
2:12 AM 28.4 °F 20.4 °F 28.4 °F 100% 30.09 in 0.2 mi East 8.1 mph - 0.00 in Fog , Snow Light Snow
2:20 AM 28.4 °F 21.2 °F 28.4 °F 100% 30.09 in 0.5 mi ESE 6.9 mph - 0.00 in Fog , Snow Light Snow
2:28 AM 28.9 °F 21.9 °F 28.0 °F 96% 30.09 in 0.5 mi East 6.9 mph - 0.00 in Fog , Snow Light Snow
2:42 AM 28.4 °F 19.7 °F 28.4 °F 100% 30.10 in 1.0 mi ESE 9.2 mph - 0.00 in Snow Light Snow
2:45 AM 28.4 °F 20.4 °F 28.4 °F 100% 30.10 in 2.0 mi ESE 8.1 mph - 0.00 in Snow Light Snow
2:53 AM 28.4 °F 21.2 °F 26.6 °F 93% 30.10 in 1.8 mi SE 6.9 mph - 0.00 in   Overcast
3:01 AM 28.0 °F 19.3 °F 27.0 °F 96% 30.10 in 1.5 mi ESE 9.2 mph - 0.00 in Snow Light Snow
3:09 AM 28.4 °F 20.4 °F 26.6 °F 93% 30.10 in 3.0 mi ESE 8.1 mph - 0.00 in Snow Light Snow
3:30 AM 28.4 °F 21.2 °F 26.6 °F 93% 30.10 in 2.0 mi East 6.9 mph - 0.00 in Snow Light Snow
3:41 AM 28.4 °F 21.2 °F 26.6 °F 93% 30.10 in 3.0 mi East 6.9 mph - 0.00 in Snow Light Snow
3:49 AM 28.4 °F 22.2 °F 26.6 °F 93% 30.10 in 2.0 mi East 5.8 mph - 0.00 in Snow Light Snow
3:57 AM 26.6 °F 19.1 °F 26.6 °F 100% 30.10 in 1.0 mi East 6.9 mph - 0.00 in Snow Light Snow
4:01 AM 27.0 °F 19.5 °F 26.1 °F 96% 30.11 in 0.5 mi East 6.9 mph - 0.00 in Fog , Snow Light Snow
4:08 AM 26.6 °F 19.1 °F 26.6 °F 100% 30.11 in 1.0 mi East 6.9 mph - 0.00 in Snow Light Snow
4:10 AM 26.6 °F 18.2 °F 26.6 °F 100% 30.11 in 2.0 mi East 8.1 mph - 0.00 in Snow Light Snow
4:25 AM 26.6 °F 19.1 °F 26.6 °F 100% 30.11 in 1.0 mi East 6.9 mph - 0.00 in Snow Light Snow
4:31 AM 26.6 °F 18.2 °F 26.6 °F 100% 30.11 in 0.5 mi ENE 8.1 mph - 0.00 in Fog , Snow Light Snow
4:39 AM 26.6 °F 18.2 °F 26.6 °F 100% 30.11 in 0.8 mi East 8.1 mph - 0.00 in Snow Light Snow
4:48 AM 26.6 °F 18.2 °F 26.6 °F 100% 30.11 in 0.2 mi East 8.1 mph - 0.00 in Fog , Snow Light Snow
5:01 AM 26.6 °F 18.2 °F 26.6 °F 100% 30.11 in 0.5 mi ESE 8.1 mph - 0.00 in Fog , Snow Light Snow
5:08 AM 26.6 °F 18.2 °F 26.6 °F 100% 30.11 in 0.8 mi East 8.1 mph - 0.00 in Snow Light Snow
5:20 AM 26.1 °F 18.4 °F 25.0 °F 96% 30.11 in 0.8 mi East 6.9 mph - 0.00 in   Overcast
5:27 AM 26.6 °F 18.2 °F 24.8 °F 93% 30.11 in 0.5 mi ENE 8.1 mph - 0.00 in Fog , Snow Light Snow
5:41 AM 26.6 °F 19.1 °F 24.8 °F 93% 30.11 in 0.2 mi East 6.9 mph - 0.00 in Fog , Snow Light Snow
5:54 AM 26.6 °F 19.1 °F 24.8 °F 93% 30.12 in 0.5 mi East 6.9 mph - 0.00 in Fog Light Freezing Fog
6:01 AM 26.6 °F 18.2 °F 24.8 °F 93% 30.12 in 0.2 mi East 8.1 mph - 0.00 in Fog Light Freezing Fog
6:28 AM 26.6 °F 19.1 °F 24.8 °F 93% 30.12 in 0.5 mi East 6.9 mph - 0.00 in Fog , Snow Light Snow
6:37 AM 26.6 °F 20.0 °F 24.8 °F 93% 30.12 in 0.2 mi East 5.8 mph - 0.00 in Fog , Snow Light Snow
6:46 AM 26.6 °F 20.0 °F 24.8 °F 93% 30.12 in 0.5 mi East 5.8 mph - 0.00 in Fog Light Freezing Fog
7:01 AM 26.1 °F 19.4 °F 25.0 °F 96% 30.12 in 0.2 mi East 5.8 mph - 0.00 in Fog Light Freezing Fog
8:01 AM 26.6 °F 19.1 °F 26.6 °F 100% 30.12 in 0.5 mi East 6.9 mph - 0.00 in Fog Light Freezing Fog
8:11 AM 26.6 °F 20.0 °F 26.6 °F 100% 30.12 in 2.5 mi East 5.8 mph - 0.00 in   Overcast
8:18 AM 26.6 °F 20.0 °F 26.6 °F 100% 30.12 in 3.0 mi East 5.8 mph - 0.00 in   Mostly Cloudy
8:25 AM 26.6 °F 20.0 °F 26.6 °F 100% 30.12 in 2.5 mi East 5.8 mph - 0.00 in   Mostly Cloudy
8:32 AM 28.4 °F 22.2 °F 26.6 °F 93% 30.12 in 7.0 mi East 5.8 mph - 0.00 in   Mostly Cloudy
8:45 AM 28.4 °F 22.2 °F 26.6 °F 93% 30.12 in 10.0 mi ENE 5.8 mph - 0.00 in   Partly Cloudy
9:01 AM 28.0 °F 20.8 °F 26.1 °F 92% 30.12 in 10.0 mi East 6.9 mph - 0.00 in   Clear
10:01 AM 28.4 °F 21.2 °F 26.6 °F 93% 30.13 in 10.0 mi East 6.9 mph - N/A   Partly Cloudy
10:13 AM 28.4 °F 20.4 °F 26.6 °F 93% 30.13 in 10.0 mi East 8.1 mph - N/A   Mostly Cloudy
11:01 AM 30.0 °F 23.2 °F 27.0 °F 88% 30.13 in 10.0 mi East 6.9 mph - N/A   Mostly Cloudy
11:34 AM 30.2 °F 22.6 °F 26.6 °F 86% 30.13 in 10.0 mi East 8.1 mph - N/A   Scattered Clouds
12:01 PM 30.9 °F 23.5 °F 27.0 °F 85% 30.14 in 10.0 mi East 8.1 mph - N/A   Partly Cloudy
12:23 PM 30.2 °F 23.4 °F 28.4 °F 93% 30.14 in 10.0 mi East 6.9 mph - N/A   Mostly Cloudy
12:32 PM 30.2 °F 22.6 °F 28.4 °F 93% 30.14 in 1.8 mi East 8.1 mph - N/A   Mostly Cloudy
12:39 PM 30.2 °F 23.4 °F 28.4 °F 93% 30.14 in 3.0 mi East 6.9 mph - N/A   Mostly Cloudy
12:48 PM 30.2 °F 23.4 °F 28.4 °F 93% 30.14 in 1.5 mi East 6.9 mph - N/A   Mostly Cloudy
1:01 PM 30.9 °F 23.5 °F 28.0 °F 89% 30.14 in 1.5 mi East 8.1 mph - N/A   Overcast
1:18 PM 30.2 °F 23.4 °F 28.4 °F 93% 30.14 in 2.5 mi East 6.9 mph - N/A   Overcast
1:31 PM 30.2 °F 23.4 °F 28.4 °F 93% 30.14 in 1.5 mi East 6.9 mph - N/A   Overcast
1:39 PM 30.2 °F 22.6 °F 28.4 °F 93% 30.14 in 0.8 mi East 8.1 mph - N/A   Overcast
1:50 PM 30.2 °F 22.6 °F 28.4 °F 93% 30.14 in 1.2 mi East 8.1 mph - N/A   Overcast
1:56 PM 30.2 °F 23.4 °F 28.4 °F 93% 30.14 in 0.8 mi East 6.9 mph - N/A   Overcast
2:01 PM 30.2 °F 22.6 °F 28.4 °F 93% 30.14 in 0.5 mi East 8.1 mph - N/A Fog Light Freezing Fog
2:09 PM 32.0 °F 24.8 °F 28.4 °F 87% 30.14 in 0.8 mi East 8.1 mph - N/A   Overcast
2:17 PM 32.0 °F 24.8 °F 28.9 °F 88% 30.14 in 0.8 mi East 8.1 mph - N/A   Overcast
2:26 PM 32.0 °F 24.2 °F 28.4 °F 87% 30.14 in 1.2 mi East 9.2 mph - N/A   Overcast
2:29 PM 32.0 °F 24.2 °F 28.4 °F 87% 30.14 in 3.0 mi East 9.2 mph - N/A   Overcast
2:36 PM 32.0 °F 24.2 °F 28.4 °F 87% 30.14 in 1.8 mi ENE 9.2 mph - N/A   Overcast
2:44 PM 32.0 °F 23.6 °F 28.4 °F 87% 30.14 in 3.0 mi East 10.4 mph - N/A   Overcast
3:01 PM 32.0 °F 24.8 °F 28.9 °F 88% 30.14 in 5.0 mi East 8.1 mph - N/A   Overcast
4:01 PM 32.0 °F 23.6 °F 28.4 °F 87% 30.14 in 1.5 mi ESE 10.4 mph - N/A   Overcast
4:09 PM 32.0 °F 24.2 °F 28.4 °F 87% 30.14 in 0.8 mi East 9.2 mph - N/A   Overcast
4:21 PM 30.2 °F 21.9 °F 28.4 °F 93% 30.14 in 0.5 mi East 9.2 mph - N/A Fog Light Freezing Fog
4:40 PM 30.2 °F 21.3 °F 28.4 °F 93% 30.14 in 0.2 mi East 10.4 mph - N/A Fog Light Freezing Fog
5:01 PM 30.9 °F 22.2 °F 28.9 °F 92% 30.14 in 0.2 mi ENE 10.4 mph - N/A Fog Light Freezing Fog
5:16 PM 30.2 °F 21.3 °F 28.4 °F 93% 30.14 in 0.5 mi East 10.4 mph - N/A Fog Light Freezing Fog
5:22 PM 30.2 °F 21.9 °F 28.4 °F 93% 30.14 in 1.0 mi East 9.2 mph - N/A   Overcast
5:26 PM 30.2 °F 22.6 °F 28.4 °F 93% 30.14 in 2.0 mi East 8.1 mph - N/A   Overcast
5:33 PM 30.2 °F 20.8 °F 28.4 °F 93% 30.14 in 1.0 mi East 11.5 mph - N/A   Overcast
5:47 PM 30.2 °F 21.3 °F 28.4 °F 93% 30.14 in 2.0 mi East 10.4 mph - N/A   Overcast
5:57 PM 30.2 °F 20.8 °F 28.4 °F 93% 30.14 in 1.0 mi East 11.5 mph - N/A   Overcast
6:01 PM 30.2 °F 21.3 °F 28.4 °F 93% 30.14 in 1.2 mi East 10.4 mph - N/A   Overcast
6:07 PM 30.0 °F 21.1 °F 28.0 °F 92% 30.14 in 1.5 mi East 10.4 mph - N/A   Overcast
6:17 PM 30.2 °F 21.3 °F 28.4 °F 93% 30.14 in 1.0 mi ESE 10.4 mph - N/A   Overcast
7:01 PM 28.4 °F 18.0 °F 28.4 °F 100% 30.14 in 4.0 mi East 12.7 mph - N/A   Overcast
7:10 PM 28.4 °F 19.1 °F 28.4 °F 100% 30.14 in 1.5 mi ESE 10.4 mph - N/A   Overcast
7:25 PM 28.4 °F 19.1 °F 28.4 °F 100% 30.15 in 3.0 mi East 10.4 mph - N/A   Overcast
7:33 PM 28.4 °F 19.1 °F 28.4 °F 100% 30.15 in 2.0 mi East 10.4 mph - N/A   Overcast
7:41 PM 28.4 °F 18.5 °F 28.4 °F 100% 30.15 in 0.5 mi East 11.5 mph - N/A Fog Light Freezing Fog
7:54 PM 28.4 °F 19.1 °F 28.4 °F 100% 30.14 in 0.8 mi ESE 10.4 mph - N/A   Overcast
8:01 PM 28.4 °F 18.5 °F 28.4 °F 100% 30.14 in 1.0 mi East 11.5 mph - N/A   Overcast
8:08 PM 28.4 °F 19.1 °F 28.4 °F 100% 30.14 in 1.5 mi East 10.4 mph - N/A   Overcast
8:18 PM 28.9 °F 18.6 °F 28.0 °F 96% 30.14 in 1.8 mi East 12.7 mph - N/A   Overcast
8:41 PM 28.4 °F 19.1 °F 28.4 °F 100% 30.14 in 3.0 mi East 10.4 mph - N/A   Overcast
8:48 PM 28.4 °F 18.0 °F 28.4 °F 100% 30.14 in 1.5 mi East 12.7 mph - N/A   Overcast
9:01 PM 28.0 °F 18.6 °F 27.0 °F 96% 30.15 in 1.5 mi East 10.4 mph - N/A   Overcast
9:07 PM 28.4 °F 18.5 °F 26.6 °F 93% 30.15 in 0.8 mi East 11.5 mph - N/A   Overcast
9:27 PM 28.4 °F 18.0 °F 26.6 °F 93% 30.15 in 0.2 mi East 12.7 mph - N/A Fog Light Freezing Fog
9:43 PM 28.4 °F 18.0 °F 26.6 °F 93% 30.15 in 0.5 mi ESE 12.7 mph - N/A Fog Light Freezing Fog
9:51 PM 28.4 °F 18.0 °F 26.6 °F 93% 30.15 in 0.2 mi East 12.7 mph - N/A Fog Light Freezing Fog
10:01 PM 28.0 °F 17.0 °F 27.0 °F 96% 30.15 in 0.2 mi East 13.8 mph - 0.00 in Fog , Snow Light Snow
10:22 PM 26.6 °F 14.7 °F 26.6 °F 100% 30.15 in 0.5 mi East 15.0 mph - 0.00 in Fog , Snow Light Snow
10:24 PM 26.6 °F 15.2 °F 26.6 °F 100% 30.14 in 1.0 mi East 13.8 mph - 0.00 in Snow Light Snow
10:28 PM 26.6 °F 15.2 °F 26.6 °F 100% 30.15 in 2.0 mi East 13.8 mph - 0.00 in Snow Light Snow
10:40 PM 26.6 °F 16.8 °F 26.6 °F 100% 30.15 in 1.5 mi East 10.4 mph - 0.00 in Snow Light Snow
10:46 PM 26.6 °F 16.2 °F 26.6 °F 100% 30.15 in 3.0 mi East 11.5 mph - 0.00 in Snow Light Snow
11:01 PM 27.0 °F 15.2 °F 26.1 °F 96% 30.14 in 3.0 mi East 15.0 mph - 0.00 in Snow Light Snow